Regional Weather Roundup
Issued by NWS Northern Indiana

Home | Current Version | Previous Version | Graphics & Text | Print | Product List | Glossary On
Versions: 1 2 3 4 5 6 7 8 9 10 11 12 13 14 15 16 17 18 19 20 21 22 23 24 25 26 27 28 29 30 31 32 33 34 35 36 37 38 39 40 41 42 43 44 45 46 47 48 49 50
000
ASUS43 KIWX 302300
RWRIWX

KIWX WEATHER ROUNDUP
NATIONAL WEATHER SERVICE NORTHERN INDIANA
700 PM EDT WED JUL 30 2014

NOTE: "FAIR" INDICATES FEW OR NO CLOUDS BELOW 12,000 FEET WITH NO
SIGNIFICANT WEATHER AND/OR OBSTRUCTIONS TO VISIBILITY.

* THESE STATIONS ARE NOT UNDER NWS QUALITY CONTROL. THEY ALSO MAY NOT
  REPORT WEATHER SUCH AS PRECIPITATION OR FOG.

INZ001>027-310000-
NORTHERN INDIANA

CITY           SKY/WX    TMP DP  RH WIND       PRES   REMARKS
GARY*          MOSUNNY   70  61  73 NE9       30.02F
VALPARAISO     SUNNY     73  58  59 N6        30.01S
KNOX*          MOSUNNY   76  58  53 N9        29.99S
SOUTH BEND     SUNNY     74  55  51 NW10      30.01F
ELKHART*       SUNNY     73  52  46 NW9       30.01F
GOSHEN         SUNNY     75  54  47 NW14      30.00S
MONTICELLO*    SUNNY     76  62  61 W7        30.00S
WARSAW*        SUNNY     73  55  53 NW9       30.00F
ANGOLA*        SUNNY     75  55  50 NW10      30.00S
FORT WAYNE     MOSUNNY   76  58  53 W7        30.01S
PERU/GRISSOM   SUNNY     77  62  59 NW10      30.01S

$$
INZ028>050-310000-
CENTRAL INDIANA

CITY           SKY/WX    TMP DP  RH WIND       PRES   REMARKS
LAFAYETTE      SUNNY     77  59  53 NW10      30.00F
KOKOMO*        SUNNY     77  59  53 W13       30.01S
MUNCIE*        MOSUNNY   75  57  53 W8        30.02S
INDIANAPOLIS   PTSUNNY   72  62  71 S5        30.03F

$$
MIZ043>046-050>051-056>058-064>065-071>073-077>080-310000-
SOUTHWEST LOWER MICHIGAN

CITY           SKY/WX    TMP DP  RH WIND       PRES   REMARKS
BATTLE CREEK   MOSUNNY   73  56  54 W10       30.00S
BENTON HARBOR  SUNNY     65  58  78 VRB6      30.01F
COLDWATER*     SUNNY     74  54  49 W12G17    29.99S
HILLSDALE*     SUNNY     72  57  60 NW6       29.99F
HOLLAND        SUNNY     67  52  58 W8        30.02F
GRAND RAPIDS   MOSUNNY   73  49  42 W15       29.99S
KALAMAZOO      SUNNY     73  57  57 W10       30.00S
STURGIS*       SUNNY     73  55  53 W9        29.99F
THREE RIVERS*  FAIR      73  59  60 NW9       30.00F

$$
OHZ001>008-015>018-024>025-310000-
NORTHWEST OHIO

CITY           SKY/WX    TMP DP  RH WIND       PRES   REMARKS
DEFIANCE       MOSUNNY   77  55  46 W9        29.98S
FINDLAY        MOSUNNY   77  57  50 W12       29.98S
TOLEDO EXPRESS MOSUNNY   76  54  46 NW15G21   29.98R
TOLEDO METCALF MOSUNNY   73  60  63 SE6       29.98R
LIMA           MOSUNNY   75  57  53 W14       30.01R

$$
&&


USA.gov is the U.S. government's official web portal to all federal, state and local government web resources and services.